Kalaeloa, HI

5:45 PM HST on November 17, 2017 (GMT -1000)
Kalaeloa (John Rodgers Field)

Weather History for PHJR - July, 2013

Change the Weather History Date:

Saturday, July 20, 2013

  Actual Average (PHHI) Record (PHHI)
Temperature  
Mean Temperature 79 °F -  
Max Temperature 87 °F 80 °F 91 °F (2004)
Min Temperature 71 °F 67 °F 64 °F (2010)
Cooling Degree Days 14    
Growing Degree Days 29 (Base 50)    
Moisture  
Dew Point 65 °F    
Average Humidity 64    
Maximum Humidity 78    
Minimum Humidity 46    
Precipitation  
Precipitation 0.00 in - - ()
Sea Level Pressure  
Sea Level Pressure 30.07 in    
Wind  
Wind Speed 4 mph (ENE)    
Max Wind Speed 12 mph    
Max Gust Speed 21 mph    
Visibility 10 miles    
Events      
Averages and records for this station are not official NWS values.
T = Trace of Precipitation, MM = Missing Value Source: NWS Daily Summary

Daily Weather History Graph

Daily Weather History Graph

Search for Another Location

Airport or City:

Trip Planner

Search our weather history database for the weather conditions in past years. The results will help you decide how hot, cold, wet, or windy it might be!

Date:

Astronomy

Jul. 20, 2013 Rise Set
Actual Time 6:01 AM HST 7:15 PM HST
Civil Twilight 5:36 AM HST 7:40 PM HST
Nautical Twilight 5:08 AM HST 8:08 PM HST
Astronomical Twilight 4:38 AM HST 8:38 PM HST
Moon 5:32 PM HST (7/20) 3:52 AM HST (7/20)
Length of Visible Light 14h 03m
Length of Day
13h 14m
Waxing Gibbous, 95% of the Moon is Illuminated
Jul 20
Waxing Gibbous
Jul 22
Full
Jul 29
Last Quarter
Aug 6
New
Aug 14
First Quarter

Hourly Weather History & Observations

Time (HST) Temp. Heat Index Dew Point Humidity Pressure Visibility Wind Dir Wind Speed Gust Speed Precip Events Conditions
12:53 AM 75.0 °F - 66.9 °F 76% 30.10 in 10.0 mi Variable 3.5 mph - N/A   Mostly Cloudy
1:53 AM 73.9 °F - 66.0 °F 76% 30.09 in 10.0 mi ENE 3.5 mph - N/A   Clear
2:53 AM 73.9 °F - 66.0 °F 76% 30.08 in 10.0 mi Calm Calm - N/A   Partly Cloudy
3:53 AM 73.9 °F - 64.9 °F 73% 30.06 in 10.0 mi Calm Calm - N/A   Clear
4:53 AM 72.0 °F - 64.0 °F 76% 30.06 in 10.0 mi Calm Calm - N/A   Clear
5:18 AM 71.6 °F - 64.4 °F 78% 30.05 in 10.0 mi Variable 3.5 mph - N/A   Partly Cloudy
5:53 AM 73.0 °F - 64.0 °F 73% 30.08 in 10.0 mi Calm Calm - N/A   Clear
6:49 AM 73.4 °F - 64.4 °F 73% 30.07 in 10.0 mi Calm Calm - N/A   Partly Cloudy
6:53 AM 73.9 °F - 64.9 °F 73% 30.09 in 10.0 mi Calm Calm - N/A   Partly Cloudy
7:53 AM 79.0 °F - 64.9 °F 62% 30.09 in 10.0 mi ENE 6.9 mph - N/A   Clear
8:53 AM 82.0 °F 83.8 °F 64.9 °F 56% 30.10 in 10.0 mi Variable 5.8 mph - N/A   Clear
9:53 AM 84.0 °F 84.9 °F 63.0 °F 49% 30.10 in 10.0 mi Variable 4.6 mph - N/A   Clear
10:53 AM 84.9 °F 86.1 °F 64.0 °F 49% 30.09 in 10.0 mi ENE 8.1 mph - N/A   Scattered Clouds
11:53 AM 86.0 °F 87.3 °F 64.0 °F 48% 30.09 in 10.0 mi Variable 3.5 mph - N/A   Mostly Cloudy
12:53 PM 84.0 °F 85.8 °F 64.9 °F 53% 30.07 in 10.0 mi Variable 6.9 mph - N/A   Scattered Clouds
1:53 PM 84.0 °F 87.0 °F 68.0 °F 58% 30.06 in 10.0 mi SE 10.4 mph 20.7 mph N/A   Mostly Cloudy
2:53 PM 82.9 °F 85.4 °F 66.9 °F 58% 30.05 in 10.0 mi SE 11.5 mph 18.4 mph N/A   Mostly Cloudy
3:53 PM 87.1 °F 88.3 °F 64.0 °F 46% 30.04 in 10.0 mi NE 8.1 mph - N/A   Partly Cloudy
4:53 PM 84.9 °F 86.1 °F 64.0 °F 49% 30.03 in 10.0 mi Variable 5.8 mph - N/A   Partly Cloudy
5:53 PM 82.9 °F 84.4 °F 64.0 °F 53% 30.03 in 10.0 mi Variable 5.8 mph - N/A   Clear
6:53 PM 80.1 °F 81.5 °F 63.0 °F 56% 30.05 in 10.0 mi Variable 4.6 mph - N/A   Clear
7:53 PM 78.1 °F - 64.0 °F 62% 30.05 in 10.0 mi ENE 6.9 mph - N/A   Clear
8:53 PM 77.0 °F - 64.9 °F 66% 30.07 in 10.0 mi ENE 4.6 mph - N/A   Clear
9:53 PM 75.9 °F - 66.0 °F 71% 30.08 in 10.0 mi ENE 4.6 mph - N/A   Partly Cloudy
10:53 PM 75.0 °F - 66.0 °F 73% 30.08 in 10.0 mi Calm Calm - N/A   Partly Cloudy
11:53 PM 75.0 °F - 66.9 °F 76% 30.07 in 10.0 mi Variable 4.6 mph - N/A   Clear